Location: Marsån
(66.4167°N, 22.2833°E)
Time: 08:44:09
(UTC+00:00)

ARIANE 5 R/B - Pass Details

Date: 24 February 2024
Orbit: 618 x 651 km, 98.1° (Epoch: 16 April)

Event Time Altitude Azimuth Distance (km) Brightness Sun altitude
Exits shadow 20:19:56 50° 344° (NNW) 803 3.3 -28.0°
Drops below altitude 10° 20:23:14 10° 340° (NNW) 2,023 6.0 -28.2°
Sets 20:25:27 0° 340° (NNW) 2,940 7.1 -28.3°
